Cherokee, IA

8:34 PM CDT on August 20, 2017 (GMT -0500)
Cherokee Municipal

Weather History for KCKP - October, 2012

Change the Weather History Date:

Saturday, October 13, 2012

  Actual Average Record
Temperature  
Mean Temperature 61 °F -  
Max Temperature 72 °F 61 °F 91 °F (1975)
Min Temperature 50 °F 36 °F 21 °F (1980)
Degree Days  
Heating Degree Days 4    
Growing Degree Days 11 (Base 50)    
Moisture  
Dew Point 54 °F    
Average Humidity 81    
Maximum Humidity 99    
Minimum Humidity 60    
Precipitation  
Precipitation 0.03 in - - ()
Sea Level Pressure  
Sea Level Pressure 29.74 in    
Wind  
Wind Speed 11 mph (SSW)    
Max Wind Speed 18 mph    
Max Gust Speed 26 mph    
Visibility 9 miles    
Events Rain , Thunderstorm    
Averages and records for this station are not official NWS values.
T = Trace of Precipitation, MM = Missing Value Source: NWS Daily Summary

Daily Weather History Graph

Daily Weather History Graph

Search for Another Location

Airport or City:

Trip Planner

Search our weather history database for the weather conditions in past years. The results will help you decide how hot, cold, wet, or windy it might be!

Date:

Astronomy

Oct. 13, 2012 Rise Set
Actual Time 7:33 AM CDT 6:42 PM CDT
Civil Twilight 7:05 AM CDT 7:10 PM CDT
Nautical Twilight 6:32 AM CDT 7:43 PM CDT
Astronomical Twilight 5:59 AM CDT 8:16 PM CDT
Moon 5:22 AM CDT (10/13) 5:27 PM CDT (10/13)
Length of Visible Light 12h 05m
Length of Day
11h 08m
Waning Crescent, 5% of the Moon is Illuminated
Oct 13
Waning Crescent
Oct 15
New
Oct 21
First Quarter
Oct 29
Full
Nov 6
Last Quarter

Hourly Weather History & Observations

Time (CDT) Temp. Dew Point Humidity Pressure Visibility Wind Dir Wind Speed Gust Speed Precip Events Conditions
12:55 AM 52.0 °F 41.9 °F 69% 29.97 in 10.0 mi South 13.8 mph 23.0 mph N/A   Overcast
1:15 AM 51.8 °F 43.3 °F 73% 29.96 in 10.0 mi SSW 17.3 mph - N/A   Overcast
1:35 AM 51.1 °F 45.5 °F 81% 29.94 in 10.0 mi South 10.4 mph 20.7 mph N/A   Overcast
1:55 AM 50.9 °F 45.5 °F 82% 29.92 in 7.0 mi South 13.8 mph - N/A   Overcast
2:15 AM 50.5 °F 45.7 °F 83% 29.91 in 7.0 mi South 10.4 mph - N/A   Overcast
2:35 AM 50.4 °F 46.4 °F 86% 29.90 in 7.0 mi South 9.2 mph - N/A   Overcast
2:55 AM 50.5 °F 46.4 °F 86% 29.89 in 7.0 mi South 12.7 mph - N/A   Overcast
3:15 AM 50.5 °F 46.6 °F 86% 29.89 in 7.0 mi South 9.2 mph - N/A   Overcast
3:35 AM 50.5 °F 46.4 °F 86% 29.88 in 7.0 mi South 6.9 mph - N/A   Overcast
3:55 AM 50.9 °F 46.4 °F 85% 29.86 in 7.0 mi South 5.8 mph - N/A   Overcast
4:15 AM 51.3 °F 47.1 °F 86% 29.85 in 7.0 mi South 8.1 mph - N/A   Overcast
4:35 AM 51.1 °F 48.0 °F 89% 29.84 in 5.0 mi South 8.1 mph - N/A   Overcast
4:55 AM 50.9 °F 48.6 °F 92% 29.83 in 4.0 mi South 6.9 mph - N/A Thunderstorm Overcast
5:15 AM 50.5 °F 49.1 °F 95% 29.84 in 4.0 mi South 5.8 mph - N/A   Overcast
5:35 AM 50.5 °F 49.5 °F 96% 29.82 in 4.0 mi South 5.8 mph - N/A   Overcast
5:55 AM 50.9 °F 50.0 °F 97% 29.82 in 5.0 mi SSE 4.6 mph - N/A Rain Light Rain
6:15 AM 51.4 °F 50.2 °F 95% 29.82 in 5.0 mi SE 3.5 mph - N/A Rain Light Rain
6:35 AM 51.8 °F 50.9 °F 97% 29.78 in 4.0 mi SE 9.2 mph - 0.01 in Rain Rain
6:55 AM 53.1 °F 52.5 °F 98% 29.74 in 5.0 mi South 8.1 mph - 0.02 in Rain Light Rain
7:15 AM 52.9 °F 52.3 °F 98% 29.75 in 5.0 mi ESE 3.5 mph - 0.01 in Rain Light Rain
7:35 AM 53.8 °F 53.4 °F 99% 29.75 in 7.0 mi South 5.8 mph - 0.01 in   Overcast
7:55 AM 54.5 °F 54.3 °F 99% 29.75 in 7.0 mi South 9.2 mph - 0.01 in   Overcast
8:15 AM 55.4 °F 54.9 °F 98% 29.76 in 10.0 mi SSW 6.9 mph - N/A   Overcast
8:55 AM 56.5 °F 55.8 °F 97% 29.76 in 10.0 mi SW 8.1 mph - N/A   Overcast
9:35 AM 58.5 °F 57.7 °F 97% 29.74 in 10.0 mi South 10.4 mph 17.3 mph N/A   Overcast
9:55 AM 59.5 °F 58.5 °F 96% 29.73 in 10.0 mi South 11.5 mph - N/A   Overcast
10:35 AM 60.8 °F 59.2 °F 94% 29.73 in 10.0 mi SSW 11.5 mph 18.4 mph N/A   Overcast
10:55 AM 61.2 °F 59.2 °F 93% 29.72 in 10.0 mi SW 11.5 mph - N/A   Overcast
11:15 AM 61.9 °F 59.5 °F 92% 29.72 in 10.0 mi SW 12.7 mph - N/A   Overcast
11:35 AM 63.3 °F 59.4 °F 87% 29.71 in 10.0 mi SW 12.7 mph 20.7 mph N/A   Overcast
11:55 AM 64.0 °F 59.4 °F 85% 29.70 in 10.0 mi SSW 16.1 mph - N/A   Mostly Cloudy
12:15 PM 66.4 °F 59.7 °F 79% 29.69 in 10.0 mi SSW 13.8 mph 23.0 mph N/A   Scattered Clouds
12:35 PM 67.3 °F 59.5 °F 76% 29.69 in 10.0 mi SSW 18.4 mph - N/A   Scattered Clouds
12:55 PM 67.5 °F 59.2 °F 75% 29.68 in 10.0 mi SSW 16.1 mph 21.9 mph N/A   Scattered Clouds
1:15 PM 68.2 °F 59.0 °F 72% 29.68 in 10.0 mi SSW 15.0 mph - N/A   Mostly Cloudy
1:35 PM 69.3 °F 58.8 °F 69% 29.67 in 10.0 mi SW 17.3 mph 21.9 mph N/A   Mostly Cloudy
1:55 PM 69.1 °F 58.8 °F 70% 29.67 in 10.0 mi SSW 18.4 mph 23.0 mph N/A   Mostly Cloudy
2:15 PM 71.2 °F 58.3 °F 64% 29.66 in 10.0 mi SW 18.4 mph 23.0 mph N/A   Mostly Cloudy
2:35 PM 72.9 °F 58.1 °F 60% 29.65 in 10.0 mi SSW 18.4 mph 24.2 mph N/A   Scattered Clouds
2:55 PM 72.3 °F 57.7 °F 60% 29.65 in 10.0 mi SW 18.4 mph 26.5 mph N/A   Scattered Clouds
3:15 PM 72.5 °F 57.7 °F 60% 29.65 in 10.0 mi SSW 15.0 mph 19.6 mph N/A   Mostly Cloudy
3:35 PM 71.2 °F 58.1 °F 63% 29.65 in 10.0 mi SW 13.8 mph 20.7 mph N/A   Overcast
3:55 PM 72.0 °F 57.7 °F 61% 29.65 in 10.0 mi SW 15.0 mph - N/A   Mostly Cloudy
4:15 PM 71.6 °F 58.3 °F 63% 29.65 in 10.0 mi WSW 13.8 mph 20.7 mph N/A   Overcast
4:35 PM 70.7 °F 59.0 °F 66% 29.65 in 10.0 mi SSW 12.7 mph - N/A   Overcast
4:55 PM 71.1 °F 58.3 °F 64% 29.65 in 10.0 mi SSW 16.1 mph - N/A   Overcast
5:15 PM 70.7 °F 57.7 °F 63% 29.65 in 10.0 mi SW 10.4 mph - N/A   Overcast
5:35 PM 70.3 °F 57.6 °F 64% 29.65 in 10.0 mi SW 6.9 mph 10.4 mph N/A   Overcast
5:55 PM 70.2 °F 57.2 °F 63% 29.65 in 10.0 mi SW 9.2 mph - N/A   Mostly Cloudy
6:15 PM 68.2 °F 57.0 °F 67% 29.66 in 10.0 mi SW 5.8 mph - N/A   Clear
6:35 PM 66.9 °F 56.8 °F 70% 29.66 in 10.0 mi Calm Calm - N/A   Clear
7:15 PM 63.5 °F 56.3 °F 77% 29.67 in 10.0 mi Calm Calm - N/A   Clear
7:35 PM 60.4 °F 55.6 °F 84% 29.67 in 10.0 mi Calm Calm - N/A   Scattered Clouds
7:55 PM 60.8 °F 55.9 °F 84% 29.67 in 10.0 mi Calm Calm - N/A   Mostly Cloudy
8:35 PM 60.6 °F 56.7 °F 87% 29.66 in 10.0 mi NNE 5.8 mph - N/A   Scattered Clouds
9:15 PM 61.3 °F 56.3 °F 83% 29.67 in 10.0 mi NNE 4.6 mph - N/A   Clear
9:35 PM 60.1 °F 55.9 °F 86% 29.67 in 10.0 mi NNE 3.5 mph - N/A   Scattered Clouds
9:55 PM 60.4 °F 56.3 °F 86% 29.69 in 10.0 mi Calm Calm - N/A   Mostly Cloudy
10:15 PM 60.8 °F 56.3 °F 85% 29.69 in 10.0 mi NNE 3.5 mph - N/A   Mostly Cloudy
11:15 PM 61.0 °F 53.8 °F 77% 29.67 in 10.0 mi NE 10.4 mph - N/A   Overcast
11:35 PM 60.4 °F 53.1 °F 77% 29.68 in 10.0 mi NE 12.7 mph - N/A   Overcast